This is the latest recevied weather packets stored in our database for station/object KC3BAN-3. If no packets are shown the sender has not sent any weather packets the latest 10 day(s).
| Time | Temp. | Humidity | Pressure | Rain* | Wind** | Luminosity | Snow |
|---|---|---|---|---|---|---|---|
| 1777602077 | 12.78° C | 86% | 1011.3 hPa | 0 mm | - | - | - |
| 1777601646 | 12.78° C | 87% | 1011.4 hPa | 0 mm | - | - | - |
| 1777601346 | 12.78° C | 86% | 1011.4 hPa | 0 mm | - | - | - |
| 1777601047 | 12.22° C | 86% | 1011.4 hPa | 0 mm | - | - | - |
| 1777600746 | 12.22° C | 86% | 1011.3 hPa | 0 mm | - | - | - |
| 1777600446 | 12.78° C | 86% | 1011.3 hPa | 0 mm | - | - | - |
| 1777600275 | 12.78° C | 86% | 1011.2 hPa | 0 mm | - | - | - |
| 1777599968 | 12.78° C | 86% | 1011.3 hPa | 0 mm | - | - | - |
| 1777599535 | 12.78° C | 86% | 1011.2 hPa | 0 mm | - | - | - |
| 1777599228 | 12.78° C | 86% | 1011.2 hPa | 0 mm | - | - | - |
| 1777599051 | 12.78° C | 86% | 1011.1 hPa | 0 mm | - | - | - |
| 1777598616 | 12.78° C | 86% | 1011.1 hPa | 0 mm | - | - | - |
| 1777598319 | 12.78° C | 86% | 1011.1 hPa | 0 mm | - | - | - |
| 1777598015 | 13.33° C | 86% | 1010.9 hPa | 0 mm | - | - | - |
| 1777597720 | 13.33° C | 85% | 1010.9 hPa | 0 mm | - | - | - |
| 1777597546 | 13.89° C | 85% | 1010.7 hPa | 0 mm | - | - | - |
| 1777597116 | 13.89° C | 86% | 1010.6 hPa | 0 mm | - | - | - |
| 1777596815 | 14.44° C | 86% | 1010.6 hPa | 0 mm | - | - | - |
| 1777596516 | 14.44° C | 86% | 1010.5 hPa | 0 mm | - | - | - |
| 1777596216 | 14.44° C | 86% | 1010.4 hPa | 0 mm | - | - | - |
| 1777596042 | 14.44° C | 86% | 1010.4 hPa | 0 mm | - | - | - |
| 1777595616 | 14.44° C | 85% | 1010.3 hPa | 0 mm | - | - | - |
| 1777595315 | 14.44° C | 86% | 1010.3 hPa | 0 mm | - | - | - |
| 1777595016 | 14.44° C | 85% | 1010.2 hPa | 0 mm | - | - | - |
| 1777594715 | 14.44° C | 85% | 1010.1 hPa | 0 mm | - | - | - |
* Rain latest hour (hover to see other rain measurements)
** Current wind speed in m/s (hover to see current wind gust speed)